{"data":{"norad_id":67942,"intl_designator":"2026-037L","name":"STARLINK-36914","alt_names":[],"object_type":"PAYLOAD","status":"ACTIVE","operator":null,"country":"US","launch_date":"2026-02-24","launch_site_code":"AFETR","launch_vehicle":null,"mission":null,"orbit_class":"UNKNOWN","rcs_meters":null,"size_class":null,"mass_kg":null,"dimensions":null,"purposes":["comms"],"wikipedia_slug":null,"has_3d_model":false,"image_url":null,"decayed_at":null,"tle_current":{"epoch":"2026-05-25T05:07:35.217120Z","epoch_age_seconds":52678,"freshness":"FRESH","line1":"1 67942U 26037L   26145.21360205  .00014230  00000+0  52538-3 0  9998","line2":"2 67942  42.9974 118.5788 0000977 273.8811  86.1929 15.27595723 15047","mean_motion":15.27595723,"eccentricity":9.77e-5,"inclination_deg":42.9974,"raan_deg":118.5788,"arg_perigee_deg":273.8811,"mean_anomaly_deg":86.1929,"bstar":0.00052538,"rev_number":1504,"period_min":94.265778459501,"perigee_km":482.33168284328,"apogee_km":483.67234940703,"semimajor_km":6861.1390161252,"source":"CELESTRAK","updated_at":"2026-05-25T13:38:21.768326Z"}}}